Location: Ferchesar
(52.6477°N, 12.4298°E)
Time: 06:01:45
(UTC+02:00)

Transit 4A - Pass Details

Date: 27 February 2021
Orbit: 869 x 976 km, 66.8° (Epoch: 12 April)

Event Time Altitude Azimuth Distance (km) Brightness Sun altitude
Rises 18:44:21 0° 319° (NW) 3,613 11.6 -9.6°
Reaches altitude 10° 18:47:00 10° 324° (NW) 2,650 10.8 -10.0°
Maximum altitude 18:53:02 55° 41° (NE) 1,097 8.1 -11.0°
Enters shadow 18:58:28 12° 118° (ESE) 2,425 9.5 -11.8°
Drops below altitude 10° 18:58:52 10° 119° (ESE) 2,565 - -11.8°
Sets 19:01:23 0° 124° (SE) 3,488 - -12.2°
